LXU1 CYUL-LFMN

Flight info

Callsign LXU1
Flight time N/A
Altitude 35000
Route ANTEG DCT OBRON DCT MOBUB DCT EBMOS DCT IMORI DCT KITOP DCT CEFOU N745B LOMSI/M080F350 DCT 55N050W 56N040W 55N030W 53N020W DCT DINIM DCT ELSOX DCT TAKAS/N0463F350 DCT ALUTA DCT KORER DCT LEMKA DCT BEBIX DCT LERGA DCT LIQID DCT LATAM DCT TUNUR DCT NISAR
Aircraft CL60/M-SABDE1E2E3FGHIJ1J3J4J7M3P2RUWXYZ/LB1D1

Departure

Time 2026-05-04 21:29
Airport Montreal / Pierre Elliott Trudeau International Airport (CYUL)

Arrival

Time N/A
Airport Nice-Côte d'Azur Airport (LFMN)
Time Latitude Longitude Altitude Speed Heading
2026-05-04 20:55 45.47646 -73.72517 113 ft 0 kts 133°
2026-05-04 21:24 45.47639 -73.72508 112 ft 5 kts 148°
2026-05-04 21:25 45.47578 -73.72453 113 ft 13 kts 131°
2026-05-04 21:25 45.47516 -73.72357 115 ft 13 kts 133°
2026-05-04 21:25 45.47495 -73.72326 116 ft 4 kts 132°
2026-05-04 21:25 45.47493 -73.72282 116 ft 5 kts 55°
2026-05-04 21:26 45.47531 -73.72232 116 ft 9 kts 44°
2026-05-04 21:26 45.47591 -73.72151 116 ft 13 kts 42°
2026-05-04 21:26 45.47659 -73.72063 118 ft 13 kts 42°
2026-05-04 21:26 45.47728 -73.71974 119 ft 13 kts 40°
2026-05-04 21:27 45.47801 -73.71874 119 ft 15 kts 46°
2026-05-04 21:27 45.47783 -73.71761 120 ft 13 kts 133°
2026-05-04 21:27 45.47743 -73.71701 121 ft 0 kts 134°
2026-05-04 21:27 45.47726 -73.71677 122 ft 9 kts 134°
2026-05-04 21:28 45.47650 -73.71671 122 ft 10 kts 224°
2026-05-04 21:28 45.47368 -73.72040 118 ft 102 kts 221°
2026-05-04 21:28 45.46652 -73.72974 171 ft 172 kts 223°
2026-05-04 21:28 45.45708 -73.74246 653 ft 204 kts 224°
2026-05-04 21:29 45.44619 -73.75745 1374 ft 227 kts 224°
2026-05-04 21:29 45.43545 -73.77219 2866 ft 216 kts 224°
2026-05-04 21:29 45.42663 -73.78767 4235 ft 204 kts 249°
2026-05-04 21:29 45.42610 -73.80676 5289 ft 199 kts 291°
2026-05-04 21:30 45.43445 -73.82220 5907 ft 202 kts 319°
2026-05-04 21:30 45.44570 -73.83268 6323 ft 194 kts 332°
2026-05-04 21:30 45.45924 -73.83907 6757 ft 207 kts 347°
2026-05-04 21:30 45.47337 -73.83957 7549 ft 205 kts
2026-05-04 21:31 45.50145 -73.82230 8208 ft 253 kts 36°
2026-05-04 21:31 45.51544 -73.80598 8749 ft 267 kts 36°
2026-05-04 21:31 45.52997 -73.78904 9513 ft 271 kts 36°
2026-05-04 21:32 45.54462 -73.77208 10269 ft 275 kts 35°
2026-05-04 21:32 45.55935 -73.75508 11005 ft 278 kts 35°
2026-05-04 21:32 45.57457 -73.73735 11674 ft 285 kts 34°
2026-05-04 21:32 45.59075 -73.71875 11918 ft 309 kts 34°
2026-05-04 21:33 45.60766 -73.69926 12225 ft 320 kts 34°
2026-05-04 21:33 45.62504 -73.67916 12588 ft 322 kts 34°
2026-05-04 21:33 45.64246 -73.65900 12959 ft 322 kts 33°
2026-05-04 21:33 45.65989 -73.63884 13321 ft 323 kts 33°
2026-05-04 21:34 45.67736 -73.61863 13688 ft 324 kts 32°
2026-05-04 21:34 45.69502 -73.59821 14035 ft 325 kts 32°
2026-05-04 21:34 45.71271 -73.57772 14385 ft 327 kts 32°
2026-05-04 21:34 45.73038 -73.55727 14734 ft 328 kts 32°
2026-05-04 21:35 45.74827 -73.53657 15086 ft 330 kts 32°
2026-05-04 21:35 45.76617 -73.51582 15442 ft 331 kts 32°
2026-05-04 21:35 45.78399 -73.49518 15799 ft 333 kts 31°
2026-05-04 21:35 45.80204 -73.47424 16161 ft 334 kts 31°
2026-05-04 21:36 45.82012 -73.45325 16526 ft 336 kts 31°
2026-05-04 21:36 45.83836 -73.43206 16894 ft 338 kts 31°
2026-05-04 21:36 45.85665 -73.41080 17264 ft 340 kts 31°
2026-05-04 21:36 45.87471 -73.38836 17638 ft 345 kts 37°
2026-05-04 21:37 45.89144 -73.36318 18014 ft 350 kts 40°
2026-05-04 21:37 45.90795 -73.33751 18391 ft 351 kts 40°
2026-05-04 21:37 45.92446 -73.31190 18757 ft 353 kts 40°
2026-05-04 21:37 45.94117 -73.28601 19132 ft 355 kts 40°
2026-05-04 21:38 45.95823 -73.25958 19515 ft 357 kts 40°
2026-05-04 21:38 45.97510 -73.23348 19902 ft 359 kts 39°
2026-05-04 21:38 45.99200 -73.20730 20292 ft 361 kts 39°
2026-05-04 21:38 46.00923 -73.18060 20690 ft 363 kts 39°
2026-05-04 21:39 46.02640 -73.15401 21092 ft 364 kts 39°
2026-05-04 21:39 46.04366 -73.12725 21501 ft 366 kts 39°
2026-05-04 21:39 46.06108 -73.10023 21919 ft 368 kts 39°
2026-05-04 21:39 46.07855 -73.07313 22341 ft 369 kts 38°
2026-05-04 21:40 46.09592 -73.04616 22763 ft 371 kts 38°
2026-05-04 21:40 46.11350 -73.01886 23194 ft 373 kts 38°
2026-05-04 21:40 46.13128 -72.99122 23636 ft 375 kts 38°
2026-05-04 21:40 46.14908 -72.96355 24077 ft 377 kts 38°
2026-05-04 21:41 46.16669 -72.93607 24514 ft 379 kts 39°
2026-05-04 21:41 46.18333 -72.90552 24968 ft 390 kts 48°
2026-05-04 21:41 46.19737 -72.87219 25419 ft 395 kts 51°
2026-05-04 21:41 46.21136 -72.83784 25882 ft 396 kts 50°
2026-05-04 21:42 46.22526 -72.80383 26342 ft 397 kts 50°
2026-05-04 21:42 46.23933 -72.76941 26838 ft 397 kts 50°
2026-05-04 21:42 46.25340 -72.73504 27334 ft 397 kts 50°
2026-05-04 21:42 46.26757 -72.70043 27833 ft 397 kts 50°
2026-05-04 21:43 46.28159 -72.66621 28324 ft 397 kts 49°
2026-05-04 21:43 46.29568 -72.63180 28815 ft 396 kts 49°
2026-05-04 21:43 46.30971 -72.59752 29301 ft 395 kts 49°
2026-05-04 21:43 46.32381 -72.56307 29786 ft 395 kts 49°
2026-05-04 21:44 46.33791 -72.52863 30293 ft 394 kts 48°
2026-05-04 21:44 46.35204 -72.49405 30801 ft 392 kts 48°
2026-05-04 21:44 46.36604 -72.45979 31299 ft 391 kts 48°
2026-05-04 21:44 46.38012 -72.42532 31793 ft 390 kts 48°
2026-05-04 21:45 46.39411 -72.39103 32250 ft 388 kts 47°
2026-05-04 21:45 46.40782 -72.35742 32598 ft 387 kts 48°
2026-05-04 21:45 46.42178 -72.32315 32927 ft 386 kts 49°
2026-05-04 21:45 46.43537 -72.28984 33230 ft 385 kts 49°
2026-05-04 21:46 46.44909 -72.25610 33505 ft 385 kts 49°
2026-05-04 21:46 46.46268 -72.22261 33740 ft 385 kts 49°
2026-05-04 21:46 46.47639 -72.18886 33960 ft 385 kts 49°
2026-05-04 21:46 46.49013 -72.15504 34167 ft 386 kts 50°
2026-05-04 21:47 46.50367 -72.12161 34361 ft 386 kts 50°
2026-05-04 21:47 46.51738 -72.08785 34535 ft 387 kts 50°
2026-05-04 21:47 46.53098 -72.05415 34690 ft 388 kts 50°
2026-05-04 21:48 46.55883 -71.98531 34737 ft 400 kts 51°
2026-05-04 21:48 46.58731 -71.91462 34743 ft 413 kts 51°
2026-05-04 21:49 46.61675 -71.84143 34726 ft 424 kts 52°
2026-05-04 21:49 46.64682 -71.76626 34740 ft 432 kts 52°
2026-05-04 21:50 46.67751 -71.68945 34756 ft 439 kts 53°
2026-05-04 21:50 46.71010 -71.61418 34752 ft 439 kts 43°
2026-05-04 21:51 46.75091 -71.54670 34744 ft 444 kts 41°
2026-05-04 21:51 46.79167 -71.47669 34757 ft 456 kts 47°
2026-05-04 21:52 46.82558 -71.39657 34750 ft 469 kts 54°
2026-05-04 21:52 46.85809 -71.31300 34753 ft 474 kts 55°
2026-05-04 21:53 46.89109 -71.22826 34753 ft 479 kts 55°
2026-05-04 21:53 46.92426 -71.14327 34755 ft 483 kts 56°
2026-05-04 21:54 46.95764 -71.05759 34760 ft 485 kts 56°
2026-05-04 21:54 46.99114 -70.97160 34758 ft 486 kts 56°